Goodland, KS

4:57 AM MST on February 13, 2016 (GMT -0700)
Renner-Goodland Municipal

Weather History for KGLD - October, 2011

Change the Weather History Date:

Monday, October 24, 2011

  Actual Average Record
Temperature  
Mean Temperature 66 °F 49 °F  
Max Temperature 83 °F 63 °F 89 °F (2014)
Min Temperature 48 °F 35 °F 20 °F (1975)
Degree Days  
Heating Degree Days 0 16  
Month to date heating degree days 212 291  
Since 1 July heating degree days 336 415  
Cooling Degree Days 1 0  
Month to date cooling degree days 17 5  
Year to date cooling degree days 1116 938  
Growing Degree Days 15 (Base 50)    
Moisture  
Dew Point 31 °F    
Average Humidity 32    
Maximum Humidity 50    
Minimum Humidity 13    
Precipitation  
Precipitation 0.00 in 0.04 in 1.63 in (1918)
Month to date precipitation 1.87 1.12  
Year to date precipitation 18.32 18.24  
Snow  
Snow 0.00 in 0.10 in - ()
Month to date snowfall 0.0 1.5  
Since 1 July snowfall T 1.9  
Since 1 September snowfall 0.0 1.9  
Snow Depth 0.00 in    
Sea Level Pressure  
Sea Level Pressure 29.88 in    
Wind  
Wind Speed 12 mph (SSW)    
Max Wind Speed 23 mph    
Max Gust Speed 30 mph    
Visibility 10 miles    
Events      
T = Trace of Precipitation, MM = Missing Value Source: NWS Daily Summary

Daily Weather History Graph

Daily Weather History Graph

Search for Another Location

Airport or City:

Trip Planner

Search our weather history database for the weather conditions in past years. The results will help you decide how hot, cold, wet, or windy it might be!

Date:

Astronomy

Oct. 24, 2011 Rise Set
Actual Time 7:05 AM MDT 5:55 PM MDT
Civil Twilight 6:38 AM MDT 6:22 PM MDT
Nautical Twilight 6:07 AM MDT 6:54 PM MDT
Astronomical Twilight 5:35 AM MDT 7:25 PM MDT
Moon 4:27 AM MDT (10/24) 4:21 PM MDT (10/24)
Length of Visible Light 11h 44m
Length of Day
10h 49m
Waning Crescent, 7% of the Moon is Illuminated
Oct 24
Waning Crescent
Oct 26
New
Nov 2
First Quarter
Nov 10
Full
Nov 18
Last Quarter

Hourly Weather History & Observations

Time (MDT) Temp. Dew Point Humidity Pressure Visibility Wind Dir Wind Speed Gust Speed Precip Events Conditions
12:53 AM 51.1 °F 30.9 °F 46% 30.05 in 10.0 mi SSW 9.2 mph - N/A   Clear
1:53 AM 48.9 °F 30.9 °F 50% 30.04 in 10.0 mi SW 9.2 mph - N/A   Clear
2:53 AM 50.0 °F 30.9 °F 48% 30.03 in 10.0 mi SW 12.7 mph - N/A   Clear
3:53 AM 52.0 °F 30.0 °F 43% 30.01 in 10.0 mi SW 13.8 mph - N/A   Clear
4:53 AM 52.0 °F 30.0 °F 43% 30.01 in 10.0 mi SSW 12.7 mph - N/A   Clear
5:53 AM 50.0 °F 30.0 °F 46% 30.04 in 10.0 mi SSW 10.4 mph - N/A   Clear
6:53 AM 51.1 °F 30.0 °F 44% 30.02 in 10.0 mi South 12.7 mph - N/A   Clear
7:53 AM 52.0 °F 30.9 °F 45% 30.01 in 10.0 mi SSW 9.2 mph - N/A   Clear
8:53 AM 55.9 °F 32.0 °F 40% 29.98 in 10.0 mi South 10.4 mph - N/A   Clear
9:53 AM 59.0 °F 34.0 °F 39% 29.96 in 10.0 mi SW 6.9 mph - N/A   Clear
10:53 AM 66.0 °F 33.1 °F 29% 29.92 in 10.0 mi SSW 4.6 mph - N/A   Clear
11:53 AM 73.0 °F 32.0 °F 22% 29.89 in 10.0 mi South 9.2 mph - N/A   Clear
12:53 PM 79.0 °F 30.0 °F 17% 29.83 in 10.0 mi South 11.5 mph - N/A   Clear
1:53 PM 80.1 °F 34.0 °F 19% 29.80 in 10.0 mi South 17.3 mph - N/A   Clear
2:53 PM 82.0 °F 27.0 °F 13% 29.78 in 10.0 mi South 19.6 mph 29.9 mph N/A   Clear
3:53 PM 80.1 °F 28.0 °F 15% 29.76 in 10.0 mi South 18.4 mph 23.0 mph N/A   Clear
4:53 PM 77.0 °F 28.9 °F 17% 29.75 in 10.0 mi South 10.4 mph - N/A   Clear
5:53 PM 60.8 °F 33.8 °F 36% 29.84 in 10.0 mi South 9.2 mph - N/A   Clear
6:53 PM 57.9 °F 33.1 °F 39% 29.78 in 10.0 mi South 10.4 mph - N/A   Clear
7:53 PM 57.9 °F 32.0 °F 37% 29.77 in 10.0 mi South 11.5 mph - N/A   Clear
8:53 PM 55.9 °F 32.0 °F 40% 29.75 in 10.0 mi South 10.4 mph - N/A   Clear
9:53 PM 53.6 °F 33.8 °F 47% 29.79 in 10.0 mi South 9.2 mph - N/A   Clear
10:53 PM 60.1 °F 30.0 °F 32% 29.69 in 10.0 mi SW 8.1 mph - N/A   Clear
11:53 PM 64.0 °F 26.1 °F 24% 29.65 in 10.0 mi SW 17.3 mph 25.3 mph N/A   Clear